| time (UTC) | temp C | wind direction | speed KPH | gust KPH | rain 1hr cm | rain 24hr cm | rain mn cm | humidity % | barometer mb |
| 20260507225139 | 18 | 245 | 1.6 | 9.7 | 0.00 | 0.00 | 0.00 | 61 | 1015.5 |
| 20260507224238 | 18 | 257 | 6.4 | 9.7 | 0.00 | 0.00 | 0.00 | 60 | 1015.7 |
| 20260507223338 | 18 | 256 | 3.2 | 6.4 | 0.00 | 0.00 | 0.00 | 59 | 1015.6 |
| 20260507222439 | 18 | 240 | 3.2 | 6.4 | 0.00 | 0.00 | 0.00 | 59 | 1015.7 |
| 20260507221538 | 18 | 237 | 3.2 | 6.4 | 0.00 | 0.00 | 0.00 | 58 | 1015.8 |
| 20260507220638 | 18 | 164 | 1.6 | 6.4 | 0.00 | 0.00 | 0.00 | 57 | 1015.8 |
| 20260507215738 | 19 | 147 | 0.0 | 6.4 | 0.00 | 0.00 | 0.00 | 57 | 1015.9 |
| 20260507213939 | 19 | 208 | 3.2 | 6.4 | 0.00 | 0.00 | 0.00 | 55 | 1016.1 |
| 20260507212138 | 19 | 213 | 3.2 | 6.4 | 0.00 | 0.00 | 0.00 | 53 | 1016.3 |
| 20260507211238 | 19 | 233 | 1.6 | 6.4 | 0.00 | 0.00 | 0.00 | 53 | 1016.2 |
| 20260507205438 | 20 | 231 | 3.2 | 11.3 | 0.00 | 0.00 | 0.00 | 48 | 1016.3 |
| 20260507204538 | 20 | 219 | 4.8 | 9.7 | 0.00 | 0.00 | 0.00 | 46 | 1016.2 |
| 20260507203638 | 20 | 268 | 3.2 | 6.4 | 0.00 | 0.00 | 0.00 | 46 | 1016.0 |
| 20260507202739 | 20 | 273 | 3.2 | 6.4 | 0.00 | 0.00 | 0.00 | 46 | 1016.2 |
| 20260507201838 | 20 | 280 | 3.2 | 6.4 | 0.00 | 0.00 | 0.00 | 47 | 1016.1 |
| 20260507200938 | 20 | 282 | 3.2 | 6.4 | 0.00 | 0.00 | 0.00 | 47 | 1016.1 |
| 20260507200038 | 20 | 271 | 3.2 | 3.2 | 0.00 | 0.00 | 0.00 | 46 | 1016.1 |
| 20260507194239 | 20 | 268 | 1.6 | 6.4 | 0.00 | 0.00 | 0.00 | 45 | 1016.2 |
| 20260507193338 | 20 | 277 | 3.2 | 6.4 | 0.00 | 0.00 | 0.00 | 45 | 1016.0 |
| 20260507192438 | 20 | 292 | 1.6 | 6.4 | 0.00 | 0.00 | 0.00 | 45 | 1016.0 |
| 20260507191538 | 20 | 282 | 3.2 | 6.4 | 0.00 | 0.00 | 0.00 | 45 | 1015.9 |
| 20260507190638 | 20 | 261 | 3.2 | 3.2 | 0.00 | 0.00 | 0.00 | 45 | 1015.9 |
| 20260507185738 | 20 | 248 | 3.2 | 6.4 | 0.00 | 0.00 | 0.00 | 45 | 1015.9 |
| 20260507184838 | 20 | 230 | 3.2 | 6.4 | 0.00 | 0.00 | 0.00 | 44 | 1016.1 |
| 20260507183938 | 20 | 257 | 1.6 | 6.4 | 0.00 | 0.00 | 0.00 | 44 | 1016.1 |
| 20260507183038 | 20 | 243 | 0.0 | 6.4 | 0.00 | 0.00 | 0.00 | 44 | 1015.9 |
| 20260507182138 | 20 | 144 | 1.6 | 6.4 | 0.00 | 0.00 | 0.00 | 44 | 1016.0 |
| 20260507181238 | 20 | 239 | 3.2 | 6.4 | 0.00 | 0.00 | 0.00 | 43 | 1016.1 |
| 20260507180338 | 20 | 195 | 3.2 | 6.4 | 0.00 | 0.00 | 0.00 | 44 | 1016.1 |
| 20260507174538 | 20 | 271 | 1.6 | 9.7 | 0.00 | 0.00 | 0.00 | 46 | 1016.0 |
| 20260507173638 | 20 | 245 | 4.8 | 14.5 | 0.00 | 0.00 | 0.00 | 45 | 1015.9 |
| 20260507171838 | 21 | 253 | 6.4 | 12.9 | 0.00 | 0.00 | 0.00 | 44 | 1016.0 |
| 20260507170938 | 21 | 260 | 3.2 | 12.9 | 0.00 | 0.00 | 0.00 | 40 | 1016.0 |
| 20260507170038 | 21 | 243 | 4.8 | 11.3 | 0.00 | 0.00 | 0.00 | 41 | 1015.7 |
| 20260507165138 | 21 | 224 | 8.0 | 11.3 | 0.00 | 0.00 | 0.00 | 37 | 1015.5 |
| 20260507164238 | 22 | 183 | 3.2 | 9.7 | 0.00 | 0.00 | 0.00 | 40 | 1015.4 |
| 20260507163339 | 21 | 166 | 3.2 | 11.3 | 0.00 | 0.00 | 0.00 | 42 | 1015.4 |
| 20260507162438 | 22 | 198 | 1.6 | 11.3 | 0.00 | 0.00 | 0.00 | 41 | 1015.6 |
| 20260507161539 | 22 | 121 | 3.2 | 6.4 | 0.00 | 0.00 | 0.00 | 41 | 1015.7 |
| 20260507160638 | 22 | 107 | 4.8 | 11.3 | 0.00 | 0.00 | 0.00 | 39 | 1015.7 |
| 20260507155738 | 22 | 133 | 3.2 | 11.3 | 0.00 | 0.00 | 0.00 | 39 | 1015.6 |
| 20260507154838 | 22 | 257 | 3.2 | 9.7 | 0.00 | 0.00 | 0.00 | 40 | 1015.8 |
| 20260507153938 | 22 | 250 | 1.6 | 9.7 | 0.00 | 0.00 | 0.00 | 42 | 1015.8 |
| 20260507152138 | 22 | 266 | 8.0 | 14.5 | 0.00 | 0.00 | 0.00 | 45 | 1016.2 |
| 20260507151238 | 22 | 250 | 11.3 | 14.5 | 0.00 | 0.00 | 0.00 | 45 | 1016.3 |
| 20260507150338 | 23 | 146 | 3.2 | 9.7 | 0.00 | 0.00 | 0.00 | 37 | 1016.1 |
| 20260507145439 | 23 | 247 | 3.2 | 14.5 | 0.00 | 0.00 | 0.00 | 38 | 1016.2 |
| 20260507144538 | 22 | 262 | 9.7 | 17.7 | 0.00 | 0.00 | 0.00 | 37 | 1016.2 |
| 20260507142738 | 23 | 211 | 4.8 | 17.7 | 0.00 | 0.00 | 0.00 | 34 | 1016.2 |
| 20260507141838 | 23 | 176 | 6.4 | 17.7 | 0.00 | 0.00 | 0.00 | 31 | 1016.3 |
| 20260507140938 | 23 | 255 | 8.0 | 17.7 | 0.00 | 0.00 | 0.00 | 31 | 1016.2 |
| 20260507140038 | 23 | 236 | 9.7 | 17.7 | 0.00 | 0.00 | 0.00 | 31 | 1016.0 |
| 20260507135138 | 24 | 231 | 6.4 | 20.9 | 0.00 | 0.00 | 0.00 | 31 | 1015.9 |
| 20260507134238 | 25 | 201 | 6.4 | 20.9 | 0.00 | 0.00 | 0.00 | 31 | 1015.8 |
| 20260507133338 | 24 | 176 | 4.8 | 17.7 | 0.00 | 0.00 | 0.00 | 33 | 1015.8 |
| 20260507132438 | 24 | 253 | 8.0 | 17.7 | 0.00 | 0.00 | 0.00 | 34 | 1015.8 |
| 20260507131539 | 23 | 260 | 6.4 | 14.5 | 0.00 | 0.00 | 0.00 | 32 | 1015.7 |
| 20260507130638 | 23 | 238 | 8.0 | 17.7 | 0.00 | 0.00 | 0.00 | 33 | 1015.8 |
| 20260507124838 | 22 | 251 | 11.3 | 20.9 | 0.00 | 0.00 | 0.00 | 46 | 1016.1 |
| 20260507123938 | 22 | 256 | 4.8 | 17.7 | 0.00 | 0.00 | 0.00 | 46 | 1016.4 |
| 20260507123038 | 22 | 260 | 12.9 | 17.7 | 0.00 | 0.00 | 0.00 | 43 | 1016.3 |
| 20260507122138 | 22 | 246 | 8.0 | 14.5 | 0.00 | 0.00 | 0.00 | 45 | 1016.4 |
| 20260507120338 | 23 | 257 | 4.8 | 17.7 | 0.00 | 0.00 | 0.00 | 48 | 1016.5 |
| 20260507115438 | 23 | 167 | 6.4 | 12.9 | 0.00 | 0.00 | 0.00 | 52 | 1016.5 |
| 20260507114538 | 23 | 209 | 3.2 | 24.1 | 0.00 | 0.00 | 0.00 | 54 | 1016.5 |
| 20260507112738 | 22 | 236 | 4.8 | 20.9 | 0.00 | 0.00 | 0.00 | 49 | 1016.8 |
| 20260507111838 | 22 | 222 | 6.4 | 20.9 | 0.00 | 0.00 | 0.00 | 49 | 1016.7 |
| 20260507110938 | 22 | 216 | 4.8 | 17.7 | 0.00 | 0.00 | 0.00 | 50 | 1016.8 |
| 20260507105138 | 22 | 211 | 8.0 | 22.5 | 0.00 | 0.00 | 0.00 | 50 | 1016.7 |
| 20260507104238 | 21 | 242 | 12.9 | 27.4 | 0.00 | 0.00 | 0.00 | 59 | 1016.6 |
| 20260507103338 | 22 | 218 | 6.4 | 20.9 | 0.00 | 0.00 | 0.00 | 59 | 1016.5 |
| 20260507102438 | 23 | 238 | 6.4 | 17.7 | 0.00 | 0.00 | 0.00 | 57 | 1016.2 |
| 20260507101538 | 22 | 222 | 6.4 | 14.5 | 0.00 | 0.00 | 0.00 | 60 | 1016.1 |
| 20260507100638 | 23 | 117 | 3.2 | 17.7 | 0.00 | 0.00 | 0.00 | 57 | 1016.1 |
| 20260507095738 | 23 | 231 | 4.8 | 14.5 | 0.00 | 0.00 | 0.00 | 58 | 1016.2 |
| 20260507094838 | 23 | 215 | 4.8 | 12.9 | 0.00 | 0.00 | 0.00 | 56 | 1016.2 |
| 20260507093938 | 23 | 173 | 6.4 | 12.9 | 0.00 | 0.00 | 0.00 | 54 | 1016.2 |
| 20260507092138 | 23 | 226 | 3.2 | 9.7 | 0.00 | 0.00 | 0.00 | 46 | 1016.2 |
| 20260507090338 | 23 | 129 | 3.2 | 9.7 | 0.00 | 0.00 | 0.00 | 45 | 1016.0 |
| 20260507085438 | 23 | 115 | 3.2 | 9.7 | 0.00 | 0.00 | 0.00 | 44 | 1016.0 |
| 20260507084538 | 23 | 121 | 3.2 | 11.3 | 0.00 | 0.00 | 0.00 | 45 | 1016.0 |
| 20260507083638 | 22 | 132 | 4.8 | 9.7 | 0.00 | 0.00 | 0.00 | 45 | 1016.2 |
| 20260507082738 | 23 | 186 | 0.0 | 6.4 | 0.00 | 0.00 | 0.00 | 44 | 1016.1 |
| 20260507081838 | 23 | 164 | 3.2 | 6.4 | 0.00 | 0.00 | 0.00 | 42 | 1015.9 |
| 20260507080938 | 22 | 182 | 4.8 | 6.4 | 0.00 | 0.00 | 0.00 | 45 | 1016.0 |
| 20260507075138 | 22 | 112 | 3.2 | 11.3 | 0.00 | 0.00 | 0.00 | 46 | 1016.0 |
| 20260507074238 | 22 | 251 | 6.4 | 12.9 | 0.00 | 0.00 | 0.00 | 45 | 1015.9 |
| 20260507072438 | 21 | 202 | 3.2 | 6.4 | 0.00 | 0.00 | 0.00 | 46 | 1015.5 |
| 20260507071538 | 22 | 120 | 3.2 | 6.4 | 0.00 | 0.00 | 0.00 | 47 | 1015.7 |
| 20260507070638 | 21 | 159 | 3.2 | 9.7 | 0.00 | 0.00 | 0.00 | 50 | 1015.8 |
| 20260507065738 | 21 | 153 | 3.2 | 9.7 | 0.00 | 0.00 | 0.00 | 50 | 1015.9 |
| 20260507064838 | 21 | 174 | 4.8 | 6.4 | 0.00 | 0.00 | 0.00 | 51 | 1016.0 |
| 20260507063038 | 21 | 127 | 3.2 | 9.7 | 0.00 | 0.00 | 0.00 | 50 | 1015.9 |
| 20260507062138 | 21 | 98 | 4.8 | 6.4 | 0.00 | 0.00 | 0.00 | 50 | 1016.1 |
| 20260507061238 | 21 | 97 | 3.2 | 6.4 | 0.00 | 0.00 | 0.00 | 50 | 1016.2 |
| 20260507060338 | 21 | 14 | 1.6 | 3.2 | 0.00 | 0.00 | 0.00 | 51 | 1016.2 |
| 20260507055438 | 21 | 314 | 0.0 | 3.2 | 0.00 | 0.00 | 0.00 | 50 | 1016.1 |
| 20260507054538 | 21 | 314 | 0.0 | 3.2 | 0.00 | 0.00 | 0.00 | 52 | 1016.1 |
| 20260507053638 | 20 | 311 | 0.0 | 3.2 | 0.00 | 0.00 | 0.00 | 52 | 1015.9 |
| 20260507052738 | 19 | 292 | 0.0 | 3.2 | 0.00 | 0.00 | 0.00 | 53 | 1015.8 |
| 20260507051838 | 18 | 294 | 1.6 | 3.2 | 0.00 | 0.00 | 0.00 | 53 | 1015.6 |
| 20260507050938 | 17 | 313 | 1.6 | 3.2 | 0.00 | 0.00 | 0.00 | 55 | 1015.7 |
| 20260507050038 | 17 | 324 | 1.6 | 3.2 | 0.00 | 0.00 | 0.00 | 56 | 1015.7 |
| 20260507044238 | 16 | 316 | 1.6 | 3.2 | 0.00 | 0.00 | 0.00 | 58 | 1015.7 |
| 20260507043338 | 16 | 314 | 0.0 | 3.2 | 0.00 | 0.00 | 0.00 | 59 | 1015.7 |
| 20260507042438 | 16 | 314 | 1.6 | 3.2 | 0.00 | 0.00 | 0.00 | 60 | 1015.6 |
| 20260507041538 | 16 | 314 | 1.6 | 3.2 | 0.00 | 0.00 | 0.00 | 61 | 1015.6 |
| 20260507040638 | 15 | 318 | 1.6 | 3.2 | 0.00 | 0.00 | 0.00 | 61 | 1015.7 |
| 20260507035738 | 15 | 329 | 1.6 | 3.2 | 0.00 | 0.00 | 0.00 | 61 | 1015.8 |
| 20260507034838 | 15 | 318 | 0.0 | 3.2 | 0.00 | 0.00 | 0.00 | 61 | 1015.8 |
| 20260507033938 | 15 | 314 | 0.0 | 3.2 | 0.00 | 0.00 | 0.00 | 61 | 1015.6 |
| 20260507033038 | 15 | 314 | 0.0 | 3.2 | 0.00 | 0.00 | 0.00 | 60 | 1015.6 |
| 20260507032138 | 15 | 314 | 1.6 | 3.2 | 0.00 | 0.00 | 0.00 | 60 | 1015.4 |
| 20260507031238 | 15 | 322 | 0.0 | 3.2 | 0.00 | 0.00 | 0.00 | 60 | 1015.5 |
| 20260507025438 | 15 | 338 | 0.0 | 3.2 | 0.00 | 0.00 | 0.00 | 60 | 1015.4 |
| 20260507024538 | 15 | 337 | 0.0 | 3.2 | 0.00 | 0.00 | 0.00 | 60 | 1015.3 |
| 20260507023638 | 15 | 337 | 0.0 | 3.2 | 0.00 | 0.00 | 0.00 | 60 | 1015.3 |
| 20260507022738 | 15 | 337 | 0.0 | 3.2 | 0.00 | 0.00 | 0.00 | 60 | 1015.3 |
| 20260507021838 | 15 | 337 | 0.0 | 3.2 | 0.00 | 0.00 | 0.00 | 59 | 1015.3 |
| 20260507020038 | 15 | 337 | 0.0 | 3.2 | 0.00 | 0.00 | 0.00 | 59 | 1015.2 |
| 20260507015138 | 16 | 338 | 0.0 | 3.2 | 0.00 | 0.00 | 0.00 | 58 | 1015.2 |
| 20260507013338 | 16 | 314 | 0.0 | 3.2 | 0.00 | 0.00 | 0.00 | 57 | 1015.0 |
| 20260507012438 | 16 | 314 | 0.0 | 3.2 | 0.00 | 0.00 | 0.00 | 57 | 1015.0 |
| 20260507011538 | 16 | 314 | 0.0 | 3.2 | 0.00 | 0.00 | 0.00 | 56 | 1014.8 |
| 20260507005738 | 16 | 314 | 0.0 | 3.2 | 0.00 | 0.00 | 0.00 | 56 | 1014.5 |
| 20260507004838 | 16 | 314 | 0.0 | 3.2 | 0.00 | 0.00 | 0.00 | 56 | 1014.6 |
| 20260507003038 | 16 | 292 | 1.6 | 6.4 | 0.00 | 0.00 | 0.00 | 55 | 1014.5 |
| 20260507001238 | 16 | 292 | 0.0 | 3.2 | 0.00 | 0.00 | 0.00 | 56 | 1014.6 |
| 20260506235438 | 16 | 292 | 0.0 | 3.2 | 0.00 | 0.00 | 0.00 | 57 | 1014.8 |
| 20260506234538 | 16 | 0 | 0.0 | 0.0 | 0.00 | 0.00 | 0.00 | 56 | 1014.9 |
| 20260506233638 | 17 | 292 | 0.0 | 3.2 | 0.00 | 0.00 | 0.00 | 55 | 1015.1 |
| 20260506232738 | 17 | 0 | 0.0 | 0.0 | 0.00 | 0.00 | 0.00 | 56 | 1015.1 |
| 20260506230938 | 17 | 292 | 0.0 | 3.2 | 0.00 | 0.00 | 0.00 | 55 | 1015.3 |
| 20260506230038 | 17 | 292 | 0.0 | 3.2 | 0.00 | 0.00 | 0.00 | 55 | 1015.3 |